This demonstration page uses our WeatherBlox Daily Observations layout. Learn more.

40.92945, -100.16068

Hourly Observations for April 18, 2018

Temp ( °F °C ) Dew Point ( °F °C ) Humidity (%) Winds ( mph kmh ) Pressure ( in mb ) Visibility ( mi km ) Precip ( " mm )
12:15 am 00:15 Cloudy 43 6.3 39 3.8 84 84 N 14 22 29.8 1009 10 16.0934 0.02 0.508
12:40 am 00:40 Cloudy with Light Rain 42 5.7 38 3.5 86 86 N 21 33 29.8 1009 10 16.0934 0.03 0.762
12:55 am 00:55 Cloudy with Rain 42 5.5 38 3.1 85 85 NNE 17 28 29.8 1009 10 16.0934 0.03 0.762
1:15 am 01:15 Cloudy with Light Rain 41 5.1 37 3 86 86 N 14 22 29.83 1010 10 16.0934 0 0
1:35 am 01:35 Cloudy with Light Rain 41 5 37 2.9 86 86 NNW 17 28 29.88 1012 10 16.0934 0.02 0.508
1:55 am 01:55 Cloudy with Light Rain 40 4.7 37 2.7 87 87 NW 17 28 29.88 1012 7 11.26538 0.04 1.016
2:15 am 02:15 Cloudy with Light Rain 39 4.1 36 2.2 88 88 NW 23 37 29.91 1013 4 6.43736 0.03 0.762
2:35 am 02:35 Cloudy with Light Rain 38 3.6 35 1.8 88 88 NNW 21 33 29.91 1013 5 8.0467 0.04 1.016
2:55 am 02:55 Cloudy with Light Rain 38 3.5 35 1.9 89 89 NW 17 28 29.91 1013 10 16.0934 0.04 1.016
3:15 am 03:15 Cloudy with Rain 38 3.5 35 1.8 89 89 NNW 17 28 29.91 1013 10 16.0934 0.01 0.254
3:35 am 03:35 Cloudy with Light Drizzle 38 3.5 35 1.8 89 89 NNW 14 22 29.91 1013 10 16.0934 0.01 0.254
3:55 am 03:55 Cloudy 38 3.5 36 2 90 90 NW 15 24 29.94 1014 10 16.0934 0.01 0.254
4:15 am 04:15 Cloudy 39 3.8 36 2 88 88 NW 16 26 29.94 1014 10 16.0934 0 0
4:35 am 04:35 Cloudy 39 4 35 1.5 84 84 NW 22 35 29.94 1014 10 16.0934 0 0
4:55 am 04:55 Mostly Cloudy 38 3.2 33 0.6 83 83 NW 22 35 29.97 1015 10 16.0934 0 0
5:15 am 05:15 Mostly Cloudy 37 3 32 0.1 81 81 NW 25 41 29.97 1015 10 16.0934 0 0
5:35 am 05:35 Partly Cloudy 37 2.5 32 0 84 84 NW 24 39 30 1016 10 16.0934 0 0
5:55 am 05:55 Clear 36 2.2 32 -0.1 85 85 NW 20 31 30.03 1017 10 16.0934 0 0
6:15 am 06:15 Mostly Cloudy 37 2.5 32 0 84 84 NW 25 41 30.03 1017 10 16.0934 0 0
6:35 am 06:35 Cloudy 37 2.9 32 0 81 81 NW 24 39 30.03 1017 10 16.0934 0 0
6:55 am 06:55 Cloudy 37 3 32 0 81 81 NW 23 37 30.06 1018 10 16.0934 0 0
7:15 am 07:15 Cloudy 36 2.2 30 -1 80 80 NW 24 39 30.06 1018 10 16.0934 0 0
7:35 am 07:35 Mostly Cloudy 36 2.2 31 -0.6 82 82 NW 22 35 30.09 1019 10 16.0934 0 0
7:55 am 07:55 Cloudy 37 2.5 31 -0.5 81 81 NNW 18 30 30.09 1019 10 16.0934 0 0
8:15 am 08:15 Cloudy 37 2.8 32 -0.2 81 81 NW 20 31 30.09 1019 10 16.0934 0 0
8:35 am 08:35 Cloudy 38 3.2 32 -0.2 79 79 NNW 25 41 30.12 1020 10 16.0934 0 0
8:55 am 08:55 Cloudy 38 3.1 32 -0.1 80 80 NNW 25 41 30.12 1020 10 16.0934 0 0
9:15 am 09:15 Cloudy 38 3.3 32 -0.2 78 78 NNW 24 39 30.12 1020 10 16.0934 0 0
9:35 am 09:35 Cloudy 39 4 31 -0.3 74 74 NW 30 48 30.09 1019 10 16.0934 0 0
9:55 am 09:55 Cloudy 39 4.1 32 0 75 75 NNW 28 44 30.09 1019 10 16.0934 0 0
10:15 am 10:15 Cloudy 39 4 31 -0.4 73 73 NNW 26 43 30.09 1019 10 16.0934 0 0
10:35 am 10:35 Cloudy 41 4.8 32 0.1 72 72 N 28 44 30.12 1020 10 16.0934 0 0
10:55 am 10:55 Mostly Cloudy 42 5.3 32 0.2 70 70 N 26 43 30.12 1020 10 16.0934 0 0
11:15 am 11:15 Mostly Cloudy 41 4.9 31 -0.5 68 68 N 24 39 30.15 1021 10 16.0934 0 0
11:35 am 11:35 Partly Cloudy 43 6.1 32 -0.1 65 65 NNW 28 44 30.15 1021 10 16.0934 0 0
11:55 am 11:55 Partly Cloudy 45 7.1 33 0.5 63 63 NNW 28 44 30.15 1021 10 16.0934 0 0
12:15 pm 12:15 Partly Cloudy 46 7.6 33 0.4 61 61 N 23 37 30.15 1021 10 16.0934 0 0
12:35 pm 12:35 Mostly Cloudy 46 7.7 32 0.1 59 59 NNW 23 37 30.12 1020 10 16.0934 0 0
12:55 pm 12:55 Cloudy 47 8.5 32 0 55 55 NNW 23 37 30.15 1021 10 16.0934 0 0
1:15 pm 13:15 Cloudy 48 8.7 33 0.3 56 56 NNW 24 39 30.15 1021 10 16.0934 0 0
1:35 pm 13:35 Cloudy 49 9.4 32 0.2 53 53 NNW 28 44 30.15 1021 10 16.0934 0 0
1:55 pm 13:55 Mostly Cloudy 49 9.7 33 0.4 53 53 NNW 26 43 30.15 1021 10 16.0934 0 0
2:15 pm 14:15 Cloudy 49 9.7 32 0.1 52 52 NNW 28 44 30.15 1021 10 16.0934 0 0
2:35 pm 14:35 Cloudy 51 10.5 33 0.8 51 51 NNW 28 44 30.15 1021 10 16.0934 0 0
2:55 pm 14:55 Cloudy 51 10.6 33 0.4 50 50 N 32 52 30.15 1021 10 16.0934 0 0
3:15 pm 15:15 Cloudy 51 10.8 32 0.1 48 48 NNW 30 48 30.18 1022 10 16.0934 0 0
3:35 pm 15:35 Cloudy 51 10.7 32 0.2 49 49 N 26 43 30.18 1022 10 16.0934 0 0
3:55 pm 15:55 Cloudy 52 11 33 0.4 48 48 NNW 28 44 30.18 1022 10 16.0934 0 0
4:15 pm 16:15 Cloudy 53 11.5 33 0.4 47 47 NNW 30 48 30.15 1021 10 16.0934 0 0
4:35 pm 16:35 Partly Cloudy 52 11.3 32 0.2 47 47 NNW 25 41 30.18 1022 10 16.0934 0 0
4:55 pm 16:55 Partly Cloudy 53 11.5 32 0.2 46 46 N 23 37 30.15 1021 10 16.0934 0 0
5:15 pm 17:15 Partly Cloudy 53 11.8 33 0.5 46 46 N 21 33 30.15 1021 10 16.0934 0 0
5:35 pm 17:35 Sunny 53 11.5 32 0 45 45 N 28 44 30.15 1021 10 16.0934 0 0
5:55 pm 17:55 Sunny 52 11.3 32 0.2 47 47 N 23 37 30.18 1022 10 16.0934 0 0
6:15 pm 18:15 Sunny 52 11 32 0.1 47 47 N 16 26 30.18 1022 10 16.0934 0 0
6:35 pm 18:35 Sunny 51 10.7 32 0.1 48 48 N 17 28 30.18 1022 10 16.0934 0 0
6:55 pm 18:55 Sunny 51 10.6 33 0.3 49 49 NNE 18 30 30.21 1023 10 16.0934 0 0
7:15 pm 19:15 Sunny 50 10.1 32 0.1 50 50 N 12 19 30.21 1023 10 16.0934 0 0
7:35 pm 19:35 Sunny 49 9.5 32 0 52 52 NNE 13 20 30.21 1023 10 16.0934 0 0
7:55 pm 19:55 Sunny 48 8.7 32 0 55 55 N 10 17 30.21 1023 10 16.0934 0 0
8:15 pm 20:15 Sunny 46 7.6 32 0 59 59 N 9 15 30.24 1024 10 16.0934 0 0
8:35 pm 20:35 Clear 42 5.7 32 -0.2 66 66 N 7 11 30.27 1025 10 16.0934 0 0
8:55 pm 20:55 Clear 40 4.7 31 -0.7 68 68 N 7 11 30.3 1026 10 16.0934 0 0
9:15 pm 21:15 Clear 39 4.1 31 -0.8 71 71 NNE 6 9 30.3 1026 10 16.0934 0 0
9:35 pm 21:35 Clear 37 3 31 -0.8 76 76 N 7 11 30.3 1026 10 16.0934 0 0
9:55 pm 21:55 Clear 37 2.8 30 -1.1 76 76 Calm 30.36 1028 10 16.0934 0 0
10:15 pm 22:15 Clear 36 2.3 30 -1.3 77 77 W 3 6 30.36 1028 10 16.0934 0 0
10:35 pm 22:35 Clear 38 3.2 30 -0.9 75 75 WNW 3 6 30.33 1027 10 16.0934 0 0
10:55 pm 22:55 Clear 37 3 30 -1.2 74 74 NNW 6 9 30.33 1027 10 16.0934 0 0
11:15 pm 23:15 Clear 34 0.9 28 -2.1 81 81 N 6 9 30.39 1029 10 16.0934 0 0
11:35 pm 23:35 Clear 33 0.5 29 -1.8 85 85 N 5 7 30.39 1029 10 16.0934 0 0
11:55 pm 23:55 Clear 33 0.4 28 -2.3 82 82 Calm 30.39 1029 10 16.0934 0 0

Powered by AerisWeather